Flag for Canada Weather past 2 weeks in Campbell River, British Columbia, Canada

Now
55 °F

Fog.


Feels Like: 55 °F
Forecast: 58 / 68 °F
Wind: 3 mph from West

Location: Campbell River Airport

Current Time: Jul 24, 2014 at 6:50:04 AM

Latest Report: Jul 24, 2014 at 6:00 AM


Visibility: 2 mi

Pressure: 30.01 "Hg

Humidity: 100%

Dew point: 55 °F

Location of Campbell RiverLocation

Historic Weather in Campbell River — Graph

°F

Campbell River temperature yesterday

Maximum temperature yesterday: 64 °F (at 12:00 PM)
Minimum temperature yesterday: 57 °F (at 6:00 AM)
Average temperature yesterday: 61 °F

Past Weeks' High & Low Weather Summary

 TemperatureHumidityPressure
High93 °F (Jul 13, 7:00 PM)100% (Jul 19, 6:00 AM)30.14 "Hg (Jul 19, 6:00 AM)
Low48 °F (Jul 21, 6:00 AM)21% (Jul 13, 7:00 PM)29.87 "Hg (Jul 19, 4:00 PM)
Average70 °F58%30.00 "Hg
* Reported Jul 8 9:00 PM — Jul 23 9:00 PM, Campbell River, Weather by CustomWeather, © 2014

Note: Actual official high and low records may vary slightly from our data, if they occured in-between our weather recording intervals... More about our weather records

Advertising

Campbell River weather history for previous 24 hours

 ConditionsComfort  
Time TempWeatherWind HumidityBarometerVisibility
9:00 PM
Jul 23
61 °FSprinkles. Mostly cloudy.No wind94%29.93 "Hg15 mi
8:00 PM61 °FSprinkles. More clouds than sun.No wind94%29.93 "Hg7 mi
7:54 PM61 °FSprinkles. More clouds than sun.3 mph94%29.93 "Hg7 mi
7:00 PM61 °FSprinkles. Fog.2 mph94%29.95 "Hg5 mi
6:00 PM61 °FFog.No wind94%29.96 "Hg4 mi
5:00 PM61 °FFog.2 mph94%29.96 "Hg5 mi
4:00 PM61 °FLight rain. Low clouds.3 mph88%29.97 "Hg30 mi
3:00 PM61 °FLight rain. Low clouds.No wind94%29.97 "Hg7 mi
2:00 PM61 °FLight rain. Mostly cloudy.5 mph94%29.97 "Hg8 mi
1:00 PM64 °FLight rain. Mostly cloudy.5 mph78%29.96 "Hg10 mi
12:50 PM64 °FLight rain. Mostly cloudy.2 mph78%29.96 "Hg10 mi
12:00 PM64 °FCloudy.No wind83%29.95 "Hg10 mi
11:00 AM63 °FMostly cloudy.2 mph88%29.96 "Hg15 mi
10:00 AM61 °FOvercast.2 mph94%29.96 "Hg15 mi
9:00 AM59 °FMostly cloudy.3 mph94%29.97 "Hg15 mi
8:00 AM59 °FMostly cloudy.3 mph94%29.97 "Hg15 mi
7:00 AM57 °FMostly cloudy.2 mph100%29.98 "Hg15 mi
6:00 AM57 °FLight rain. Mostly cloudy.3 mph100%29.98 "Hg15 mi
Weather by CustomWeather, © 2014

See weather overviewHow to use our weather pages